Location: Antichan
(42.9728°N, 0.6667°E)
Time: 12:49:28
(UTC+00:00)

SL-16 R/B - Pass Details

Date: 15 August 2020
Orbit: 843 x 845 km, 71.0° (Epoch: 24 September)

Event Time Altitude Azimuth Distance (km) Brightness Sun altitude
Rises 19:54:31 0° 342° (NNW) 3,415 6.1 -10.0°
Reaches altitude 10° 19:57:19 10° 354° (N) 2,476 5.2 -10.5°
Maximum altitude 20:02:13 29° 54° (NE) 1,510 3.3 -11.3°
Enters shadow 20:06:01 15° 106° (ESE) 2,143 3.7 -11.9°
